This demonstration page uses our WeatherBlox Daily Observations layout. Learn more.

Left ArrowRight Arrow

Hourly Observations for July 24, 2021

Temp ( °F °C ) Dew Point ( °F °C ) Humidity (%) Winds ( mph kmh ) Pressure ( in mb ) Visibility ( mi km ) Precip ( " mm )
12:53 am 00:53 Mostly Cloudy 79 26.1 59 15 50 50 SSE 9 15 29.88 1012 10 16 0.00 0.00
1:53 am 01:53 Partly Cloudy 80 26.7 59 15 49 49 SW 5 7 29.91 1013 10 16 0.00 0.00
2:53 am 02:53 Clear 80 26.7 61 16.1 52 52 SE 6 9 29.88 1012 10 16 0.00 0.00
3:53 am 03:53 Mostly Cloudy 80 26.7 63 17.2 56 56 SE 9 15 29.86 1011 10 16 0.00 0.00
4:53 am 04:53 Clear 78 25.6 64 17.8 62 62 S 7 11 29.87 1012 10 16 0.00 0.00
5:53 am 05:53 Clear 74 23.3 65 18.3 74 74 SE 6 9 29.88 1012 10 16 0.00 0.00
6:53 am 06:53 Clear 73 22.8 65 18.3 76 76 SSE 5 7 29.88 1012 10 16 0.00 0.00
7:53 am 07:53 Sunny 74 23.3 65 18.3 74 74 SSE 3 6 29.90 1013 10 16 0.00 0.00
8:53 am 08:53 Sunny 77 25 65 18.3 66 66 S 6 9 29.91 1013 10 16 0.00 0.00
9:53 am 09:53 Sunny 82 27.8 64 17.8 55 55 S 5 7 29.93 1014 10 16 0.00 0.00
10:53 am 10:53 Sunny 86 30 62 16.7 45 45 W 5 7 29.92 1013 10 16 0.00 0.00
11:53 am 11:53 Sunny 91 32.8 61 16.1 37 37 SW 10 17 29.91 1013 10 16 0.00 0.00
12:53 pm 12:53 Sunny 94 34.4 59 15 31 31 SSW 10 17 29.90 1013 10 16 0.00 0.00
1:53 pm 13:53 Sunny 96 35.6 57 13.9 27 27 SSW 5 7 29.88 1012 10 16 0.00 0.00
2:53 pm 14:53 Sunny 98 36.7 56 13.3 24 24 VRB 6 9 29.86 1011 10 16 0.00 0.00
3:53 pm 15:53 Sunny 100 37.8 54 12.2 21 21 undefined N/A 29.83 1010 10 16 0.00 0.00
4:53 pm 16:53 Mostly Cloudy 101 38.3 54 12.2 21 21 SSE 13 20 29.82 1010 10 16 0.00 0.00
5:53 pm 17:53 Mostly Sunny 96 35.6 60 15.6 30 30 S 18 30 29.82 1010 10 16 0.00 0.00
6:53 pm 18:53 Sunny 94 34.4 60 15.6 32 32 SSW 15 24 29.82 1010 10 16 0.00 0.00
7:53 pm 19:53 Sunny 93 33.9 58 14.4 31 31 S 10 17 29.82 1010 10 16 0.00 0.00
8:53 pm 20:53 Sunny 90 32.2 57 13.9 33 33 SSE 7 11 29.83 1010 10 16 0.00 0.00
9:53 pm 21:53 Clear 87 30.6 58 14.4 37 37 SW 5 7 29.83 1010 10 16 0.00 0.00
10:53 pm 22:53 Mostly Clear 84 28.9 58 14.4 41 41 NE 6 9 29.86 1011 10 16 0.00 0.00
11:53 pm 23:53 Mostly Cloudy 84 28.9 60 15.6 44 44 Calm 29.88 1012 10 16 0.00 0.00

Powered by AerisWeather